Location: Aiyekoto
(8.4333°N, 4.3667°E)
Time: 04:21:56
(UTC+00:00)

Tiros 1 despin weight - All Passes

Search period start: 21 September 2020 00:00
Search period end: 01 October 2020 00:00
Orbit: 593 x 642 km, 48.2° (Epoch: 20 September)

Date Brightness Start Highest point End Pass type
(mag) Time Alt. Az. Time Alt. Az. Time Alt. Az.
21 Sep - 10:16:09 10° SE 10:17:03 11° SE 10:17:57 10° ESE daylight
21 Sep - 11:53:59 10° SW 11:58:19 54° NW 12:02:43 10° NNE daylight
21 Sep - 22:16:56 10° NW 22:21:37 77° NE 22:26:14 10° SE night (unlit)
22 Sep - 10:29:35 10° S 10:33:24 28° SE 10:37:15 10° ENE daylight
22 Sep - 12:11:27 10° W 12:14:48 21° NW 12:18:13 10° N daylight
22 Sep - 20:53:22 10° N 20:56:29 17° NE 20:59:35 10° E night (unlit)
22 Sep - 22:33:38 10° WNW 22:37:59 39° SW 22:42:18 10° SSE night (unlit)
23 Sep - 10:45:20 10° SW 10:49:45 81° SE 10:54:14 10° NE daylight
23 Sep - 21:08:33 10° NNW 21:12:59 42° NE 21:17:24 10° ESE night (unlit)
23 Sep - 22:51:39 10° W 22:54:20 15° SW 22:57:01 10° SSW night (unlit)
24 Sep - 09:22:07 10° SSE 09:24:52 16° SE 09:27:38 10° E daylight
24 Sep - 11:02:07 10° WSW 11:06:11 35° NW 11:10:17 10° NNE daylight
24 Sep - 19:47:09 10° NE 19:47:45 10° NE 19:48:19 10° NE visible
24 Sep - 21:24:45 10° NW 21:29:24 71° SW 21:34:02 10° SSE night (unlit)
25 Sep - 09:37:02 10° SSW 09:41:13 43° SE 09:45:26 10° ENE daylight
25 Sep - 11:20:19 10° W 11:22:43 14° NW 11:25:08 10° NNW daylight
25 Sep - 20:00:30 10° N 20:04:21 25° NE 20:08:11 10° ESE visible
25 Sep - 21:41:52 10° WNW 21:45:46 26° SW 21:49:39 10° S night (unlit)
26 Sep - 09:53:13 10° SW 09:57:36 65° NW 10:02:00 10° NNE daylight
26 Sep - 20:16:10 10° NNW 20:20:48 65° NE 20:25:26 10° SE visible
27 Sep - 08:29:07 10° S 08:32:41 24° SE 08:36:15 10° ENE daylight
27 Sep - 10:10:28 10° WSW 10:14:03 24° NW 10:17:40 10° N daylight
27 Sep - 18:52:57 10° N 18:55:39 15° NE 18:58:20 10° E visible
27 Sep - 20:32:42 10° NW 20:37:12 46° SW 20:41:40 10° SSE visible
28 Sep - 08:44:40 10° SSW 08:49:02 68° SE 08:53:26 10° NE daylight
28 Sep - 19:07:53 10° NNW 19:12:11 36° NE 19:16:30 10° ESE visible
28 Sep - 20:50:23 10° W 20:53:33 18° SW 20:56:43 10° S visible
29 Sep - 07:21:58 10° SSE 07:24:09 13° SE 07:26:20 10° E daylight
29 Sep - 09:01:17 10° WSW 09:05:26 42° NW 09:09:38 10° NNE daylight
29 Sep - 19:23:55 10° NW 19:28:36 84° SW 19:33:18 10° SE visible
30 Sep - 07:36:28 10° SSW 07:40:30 36° SE 07:44:33 10° ENE daylight
30 Sep - 09:19:09 10° W 09:21:57 16° NW 09:24:45 10° N daylight
30 Sep - 17:59:56 10° N 18:03:31 22° NE 18:07:07 10° E visible
30 Sep - 19:40:51 10° WNW 19:44:58 31° SW 19:49:06 10° S visible
